Regional Weather Roundup
Issued by NWS Newport/Morehead, NC

Current Version | Previous Version | Graphics & Text | Print | Product List | Glossary Off
Versions: 1 2 3 4 5 6 7 8 9 10 11 12 13 14 15 16 17 18 19 20 21 22 23 24 25 26 27 28 29 30 31 32 33 34 35 36 37 38 39 40 41 42 43 44 45 46 47 48 49 50

000
ASUS42 KMHX 052212
RWRMHX
WEATHER ROUNDUP FOR EASTERN NORTH CAROLINA
NATIONAL WEATHER SERVICE NEWPORT/MOREHEAD CITY NC
600 PM EDT TUE MAY 05 2015

NOTE: "FAIR" INDICATES FEW OR NO CLOUDS BELOW 12,000 FEET
WITH NO SIGNIFICANT WEATHER AND/OR OBSTRUCTIONS TO VISIBILITY

NCZ015>017-031-032-045>047-102-103-052300-
NORTH COAST

CITY           SKY/WX    TMP DP  RH WIND       PRES   REMARKS
EDENTON        SUNNY     77  51  40 S13       30.27S
ELIZABETH CITY SUNNY     76  47  35 S13       30.26F
KITTY HAWK     PTCLDY    73  53  47 S8        30.28R
MANTEO         MOSUNNY   72  57  60 S12G18    30.29S

$$

NCZ045>047-081-094-103-104-052300-
CENTRAL COAST

CITY           SKY/WX    TMP DP  RH WIND       PRES   REMARKS
FRISCO         PTSUNNY   70  55  59 S8        30.30S
SWANQUARTER      N/A     73 N/A N/A S9        30.27S

$$

NCZ095-097-098-100-101-052300-
SOUTHERN COAST

CITY           SKY/WX    TMP DP  RH WIND       PRES   REMARKS
BEAUFORT       PTSUNNY   73  54  51 SE9       30.29F
CEDAR ISLAND     N/A     75 N/A N/A SE8G16    30.33S
JACKSONVILLE   PTSUNNY   72  51  47 S8        30.28F
PINEY ISLAND   MOCLDY   N/A N/A N/A S12       30.29S
WILMINGTON     PTSUNNY   73  55  53 E9        30.28F


$$

NCZ011>013-027>030-043-044-078>080-089-090>093-098-052300-
COASTAL PLAIN

CITY           SKY/WX    TMP DP  RH WIND       PRES   REMARKS
AHOSKIE        SUNNY     78  53  40 S8        30.24F
CLINTON        SUNNY     79  55  42 SE5       30.27S
ELIZABETHTOWN  MOSUNNY   78  50  36 SE8       30.27R
GOLDSBORO      MOSUNNY   80  51  35 SE8       30.24S
GREENVILLE     MOSUNNY   81  48  32 S10G17    30.26S
HAVELOCK       PTSUNNY   75  49  39 SE10G17   30.30S
KENANSVILLE    PTSUNNY   75  45  34 SE7       30.29R
KINSTON        MOSUNNY   79  45  29 S14       30.28R
NEW BERN       PTSUNNY   74  48  39 S10       30.30R
RICHLANDS      PTSUNNY   73  48  40 SE8       30.29S
ROCKY MOUNT    SUNNY     80  54  40 S7        30.25S
WASHINGTON     MOSUNNY   77  49  37 S7        30.27S
WHITEVILLE     PTSUNNY   76  55  48 SE7       30.26S

$$

AMZ130-135-150-152-154-156-158-170-250-252-270-ANZ085-086-088-633-658-670-052300-
MARINE OBSERVATIONS

STATION/POSITION TIME  TEMP    WIND        PRES    WAVE   SWELL
                       AIR SEA DIR/SP/G            HT/PER HT/PER
                 (UTC) (F)     (DEG/KT/KT) (MB)    (FT/S) (FT/S)
CHESAPEAKE LIGHT 2100   67     180/ 24/ 25 1024.1
64 E VA BEACH    2150   65 60  190/ 16/ 19 1024.9    2/11   2/11
DUCK             2100   74 55  180/ 16/ 21 1024.1
2 E DUCK         2111      58                N/A     2/12   2/12
OREGON INLET     2100   71 72  180/ 12/ 14 1026.0
13E OREGON INLT  2200      64                N/A     2/11   2/11
HATTERAS CG      2100   73 68  160/  9/ 12 1025.8
DIAMOND BUOY     2150   72 77  160/ 16/ 17 1026.0    3/11   2/11
CAPE LOOKOUT     2200   69     150/  7/  8 1025.7
BEAUFORT LAB     2100   72 69  180/  9/ 10 1025.3
27 SE WRIGHTSVLE 2100   69 71  120/  8/ 10   N/A
5 SE WRIGHTSVLE  NOT AVBL
225 S CAPE HAT   2150   70 70   90/ 17/ 21 1024.8    6/ 7   2/11
41 SE CHARLESTON 2150   73 73   60/ 16/ 17 1023.6    3/ 7   2/ 7

$$


USA.gov is the U.S. government's official web portal to all federal, state and local government web resources and services.